This demonstration page uses our WeatherBlox Daily Observations layout. Learn more.

Left ArrowRight Arrow

40.97296, -117.73568

Hourly Observations for August 25, 2022

Temp ( °F °C ) Dew Point ( °F °C ) Humidity (%) Winds ( mph kmh ) Pressure ( in mb ) Visibility ( mi km ) Precip ( " mm )
12:56 am 00:56 Clear 62 16.7 22 -5.6 21 21 ENE 3 6 29.84 1011 10 16 0.00 0.00
1:56 am 01:56 Clear 57 13.9 21 -6.1 24 24 Calm 29.87 1012 10 16 0.00 0.00
2:56 am 02:56 Clear 53 11.7 20 -6.7 27 27 Calm 29.89 1012 10 16 0.00 0.00
3:56 am 03:56 Clear 56 13.3 26 -3.3 31 31 S 3 6 29.90 1013 10 16 0.00 0.00
4:56 am 04:56 Clear 56 13.3 25 -3.9 30 30 Calm 29.91 1013 10 16 0.00 0.00
5:56 am 05:56 Clear 54 12.2 26 -3.3 34 34 E 5 7 29.93 1014 10 16 0.00 0.00
6:56 am 06:56 Sunny 56 13.3 26 -3.3 31 31 VRB 3 6 29.96 1015 10 16 0.00 0.00
7:56 am 07:56 Sunny 65 18.3 27 -2.8 24 24 SSW 3 6 29.98 1015 10 16 0.00 0.00
8:56 am 08:56 Sunny 79 26.1 27 -2.8 15 15 Calm 29.98 1015 10 16 0.00 0.00
9:56 am 09:56 Sunny 85 29.4 27 -2.8 12 12 WNW 6 9 29.97 1015 10 16 0.00 0.00
10:56 am 10:56 Sunny 91 32.8 20 -6.7 7 7 WSW 9 15 29.96 1015 10 16 0.00 0.00
11:56 am 11:56 Sunny 93 33.9 24 -4.4 8 8 SW 14 22 29.96 1015 10 16 0.00 0.00
12:56 pm 12:56 Sunny 94 34.4 24 -4.4 8 8 WNW 10 17 29.93 1014 10 16 0.00 0.00
1:56 pm 13:56 Sunny 97 36.1 27 -2.8 8 8 WSW 15 24 29.91 1013 10 16 0.00 0.00
2:56 pm 14:56 Sunny 97 36.1 28 -2.2 9 9 S 14 22 29.89 1012 10 16 0.00 0.00
3:56 pm 15:56 Sunny 97 36.1 24 -4.4 7 7 WSW 16 26 29.88 1012 10 16 0.00 0.00
4:56 pm 16:56 Sunny 96 35.6 21 -6.1 7 7 W 13 20 29.87 1012 10 16 0.00 0.00
5:56 pm 17:56 Sunny 95 35 21 -6.1 7 7 WNW 14 22 29.87 1012 10 16 0.00 0.00
6:56 pm 18:56 Sunny 91 32.8 19 -7.2 7 7 WNW 9 15 29.88 1012 10 16 0.00 0.00
7:56 pm 19:56 Clear 78 25.6 19 -7.2 11 11 WSW 8 13 29.90 1013 10 16 0.00 0.00
8:56 pm 20:56 Clear 72 22.2 16 -8.9 12 12 Calm 29.90 1012 10 16 0.00 0.00
9:56 pm 21:56 Clear 68 20 22 -5.6 17 17 E 5 7 29.91 1013 10 16 0.00 0.00
10:56 pm 22:56 Clear 64 17.8 20 -6.7 18 18 N 3 6 29.91 1013 10 16 0.00 0.00
11:56 pm 23:56 Clear 61 16.1 24 -4.4 24 24 S 6 9 29.91 1013 10 16 0.00 0.00

Powered by AerisWeather